When you browse on this site, cookies collect data to enhance your experience and personalize the content and advertising you see.
Visit our Privacy Policy to learn more. By continuing to use the site, you agree to this use of cookies and data.
  • In Hungary
  • List of Countries
  • For 7 days
  • Water Temperature
  • Weather Map
  • News
  • Weather Widgets
  • user-avatar
    Login

    Hourly Weather Gladkie Vyselki

    Today, 25 February, Tuesday

    Time Temperature Precipitation Wind Pressure Humidity
    00:00 -1°C° 0 mm 1 mps 732 mmHg 89%
    01:00 -3°C° 0 mm 2 mps 732 mmHg 90%
    02:00 -3°C° 0 mm 2 mps 732 mmHg 91%
    03:00 -4°C° 0 mm 3 mps 732 mmHg 95%
    04:00 -4°C° 0 mm 3 mps 732 mmHg 95%
    05:00 -4°C° 0 mm 4 mps 732 mmHg 95%
    06:00 -5°C° 0 mm 5 mps 732 mmHg 95%
    07:00 -5°C° 0 mm 5 mps 733 mmHg 93%
    08:00 -5°C° 0 mm 5 mps 733 mmHg 92%
    09:00 -6°C° 0 mm 5 mps 733 mmHg 91%
    10:00 -5°C° 0 mm 6 mps 733 mmHg 89%
    11:00 -4°C° 0 mm 6 mps 734 mmHg 87%
    12:00 -4°C° 0 mm 7 mps 734 mmHg 84%
    13:00 -3°C° 0 mm 6 mps 734 mmHg 82%
    14:00 -2°C° 0 mm 5 mps 735 mmHg 79%
    15:00 -2°C° 0 mm 5 mps 735 mmHg 77%
    16:00 -3°C° 0 mm 4 mps 735 mmHg 77%
    17:00 -4°C° 0 mm 4 mps 736 mmHg 78%
    18:00 -5°C° 0 mm 3 mps 736 mmHg 79%
    19:00 -5°C° 0 mm 3 mps 736 mmHg 79%
    20:00 -5°C° 0 mm 4 mps 736 mmHg 79%
    21:00 -7°C° 0 mm 4 mps 737 mmHg 79%
    22:00 -6°C° 0 mm 3 mps 737 mmHg 80%
    23:00 -6°C° 0 mm 3 mps 737 mmHg 81%

    Tomorrow, 26 February, Wednesday

    Time Temperature Precipitation Wind Pressure Humidity
    00:00 -7°C° 0 mm 3 mps 737 mmHg 82%
    01:00 -7°C° 0 mm 3 mps 737 mmHg 83%
    02:00 -7°C° 0 mm 3 mps 737 mmHg 84%
    03:00 -7°C° 0 mm 3 mps 737 mmHg 85%
    04:00 -8°C° 0 mm 3 mps 737 mmHg 86%
    05:00 -8°C° 0 mm 3 mps 737 mmHg 87%
    06:00 -8°C° 0 mm 3 mps 736 mmHg 88%
    07:00 -8°C° 0 mm 4 mps 736 mmHg 89%
    08:00 -8°C° 0 mm 5 mps 736 mmHg 89%
    09:00 -7°C° 0 mm 5 mps 736 mmHg 90%
    10:00 -6°C° 0 mm 5 mps 735 mmHg 90%
    11:00 -5°C° 0 mm 6 mps 735 mmHg 90%
    12:00 -4°C° 0 mm 6 mps 734 mmHg 91%
    13:00 -4°C° 0.1 mm 6 mps 734 mmHg 93%
    14:00 -3°C° 0.1 mm 6 mps 734 mmHg 95%
    15:00 -3°C° 0.1 mm 7 mps 733 mmHg 98%
    16:00 -3°C° 0.4 mm 6 mps 733 mmHg 97%
    17:00 -3°C° 0.4 mm 6 mps 733 mmHg 97%
    18:00 -2°C° 0.4 mm 6 mps 733 mmHg 97%
    19:00 -2°C° 0.2 mm 6 mps 733 mmHg 97%
    20:00 -1°C° 0.2 mm 5 mps 733 mmHg 97%
    21:00 -1°C° 0.2 mm 5 mps 733 mmHg 98%
    22:00 -1°C° 0 mm 4 mps 733 mmHg 98%
    23:00 -1°C° 0 mm 4 mps 733 mmHg 98%

    Day after tomorrow, 27 February, Thursday

    Time Temperature Precipitation Wind Pressure Humidity
    00:00 -1°C° 0 mm 4 mps 732 mmHg 98%
    01:00 0°C° 0.1 mm 3 mps 732 mmHg 98%
    02:00 0°C° 0.1 mm 3 mps 732 mmHg 98%
    03:00 0°C° 0.1 mm 3 mps 732 mmHg 98%
    04:00 0°C° 0.1 mm 3 mps 732 mmHg 97%
    05:00 -1°C° 0.1 mm 4 mps 732 mmHg 96%
    06:00 -1°C° 0.1 mm 4 mps 732 mmHg 96%
    07:00 -1°C° 0.1 mm 5 mps 731 mmHg 96%
    08:00 -1°C° 0.1 mm 5 mps 731 mmHg 96%
    09:00 -1°C° 0.1 mm 5 mps 731 mmHg 96%
    10:00 -1°C° 0 mm 5 mps 731 mmHg 97%
    11:00 -2°C° 0 mm 6 mps 730 mmHg 98%
    12:00 -2°C° 0 mm 6 mps 730 mmHg 99%
    13:00 -2°C° 0 mm 6 mps 730 mmHg 98%
    14:00 -2°C° 0 mm 6 mps 730 mmHg 98%
    15:00 0°C° 0 mm 5 mps 729 mmHg 98%
    16:00 0°C° 0.1 mm 5 mps 729 mmHg 98%
    17:00 0°C° 0.1 mm 5 mps 729 mmHg 98%
    18:00 0°C° 0.1 mm 4 mps 728 mmHg 97%
    19:00 0°C° 0.5 mm 5 mps 729 mmHg 97%
    20:00 0°C° 0.5 mm 5 mps 729 mmHg 97%
    21:00 0°C° 0.5 mm 5 mps 729 mmHg 97%
    22:00 0°C° 0 mm 5 mps 729 mmHg 97%
    23:00 0°C° 0 mm 4 mps 729 mmHg 96%

    28 February, Friday

    Time Temperature Precipitation Wind Pressure Humidity
    00:00 0°C° 0 mm 4 mps 730 mmHg 96%
    01:00 0°C° 0 mm 3 mps 730 mmHg 94%
    02:00 0°C° 0 mm 3 mps 730 mmHg 93%
    03:00 +1°C° 0 mm 2 mps 731 mmHg 91%
    04:00 +1°C° 0 mm 2 mps 730 mmHg 92%
    05:00 -1°C° 0 mm 2 mps 730 mmHg 92%
    06:00 -1°C° 0 mm 2 mps 730 mmHg 93%
    07:00 +1°C° 0.1 mm 1 mps 730 mmHg 94%
    08:00 +1°C° 0.1 mm 1 mps 730 mmHg 95%
    09:00 +1°C° 0.1 mm 1 mps 730 mmHg 96%
    10:00 -1°C° 0.4 mm 2 mps 730 mmHg 95%
    11:00 +1°C° 0.4 mm 2 mps 730 mmHg 95%
    12:00 +1°C° 0.4 mm 2 mps 730 mmHg 94%
    13:00 0°C° 0.2 mm 3 mps 731 mmHg 94%
    14:00 0°C° 0.2 mm 3 mps 731 mmHg 94%
    15:00 0°C° 0.2 mm 3 mps 732 mmHg 93%
    16:00 0°C° 0 mm 3 mps 732 mmHg 91%
    17:00 -1°C° 0 mm 3 mps 733 mmHg 89%
    18:00 -1°C° 0 mm 3 mps 734 mmHg 86%
    19:00 -2°C° 0 mm 3 mps 734 mmHg 84%
    20:00 -2°C° 0 mm 3 mps 735 mmHg 81%
    21:00 -2°C° 0 mm 3 mps 736 mmHg 79%
    22:00 -4°C° 0 mm 3 mps 736 mmHg 81%
    23:00 -4°C° 0 mm 3 mps 737 mmHg 83%

    29 February, Saturday

    Time Temperature Precipitation Wind Pressure Humidity
    00:00 -4°C° 0 mm 3 mps 737 mmHg 85%
    01:00 -4°C° 0 mm 3 mps 737 mmHg 85%
    02:00 -4°C° 0 mm 3 mps 737 mmHg 86%
    03:00 -4°C° 0 mm 3 mps 738 mmHg 86%
    04:00 -4°C° 0 mm 3 mps 738 mmHg 86%
    05:00 -4°C° 0 mm 3 mps 738 mmHg 86%
    06:00 -4°C° 0 mm 3 mps 738 mmHg 86%
    07:00 -3°C° 0 mm 2 mps 739 mmHg 85%
    08:00 -3°C° 0 mm 2 mps 739 mmHg 85%
    09:00 -2°C° 0 mm 2 mps 739 mmHg 85%
    10:00 -2°C° 0 mm 2 mps 739 mmHg 83%
    11:00 -1°C° 0 mm 2 mps 739 mmHg 81%
    12:00 -1°C° 0 mm 2 mps 739 mmHg 79%
    13:00 +1°C° 0 mm 2 mps 739 mmHg 79%
    14:00 +1°C° 0 mm 2 mps 739 mmHg 79%
    15:00 +1°C° 0 mm 2 mps 739 mmHg 79%
    16:00 -1°C° 0 mm 2 mps 739 mmHg 82%
    17:00 -1°C° 0 mm 2 mps 739 mmHg 85%
    18:00 -2°C° 0 mm 2 mps 739 mmHg 88%
    19:00 -2°C° 0 mm 2 mps 740 mmHg 88%
    20:00 0°C° 0 mm 1 mps 740 mmHg 88%
    21:00 0°C° 0 mm 1 mps 740 mmHg 88%
    22:00 -2°C° 0 mm 2 mps 741 mmHg 88%
    23:00 -2°C° 0 mm 2 mps 741 mmHg 88%

    1 March, Sunday

    Time Temperature Precipitation Wind Pressure Humidity
    00:00 -2°C° 0 mm 2 mps 741 mmHg 88%
    01:00 -2°C° 0 mm 2 mps 741 mmHg 88%
    02:00 -2°C° 0 mm 2 mps 741 mmHg 88%
    03:00 -3°C° 0 mm 2 mps 742 mmHg 89%
    04:00 -3°C° 0 mm 2 mps 742 mmHg 88%
    05:00 -3°C° 0 mm 2 mps 742 mmHg 87%
    06:00 -3°C° 0 mm 2 mps 742 mmHg 86%
    07:00 -3°C° 0 mm 2 mps 743 mmHg 84%
    08:00 -2°C° 0 mm 3 mps 743 mmHg 83%
    09:00 -2°C° 0 mm 3 mps 743 mmHg 81%
    10:00 -2°C° 0 mm 3 mps 744 mmHg 80%
    11:00 -1°C° 0 mm 3 mps 744 mmHg 79%
    12:00 0°C° 0 mm 3 mps 744 mmHg 78%
    13:00 0°C° 0 mm 3 mps 744 mmHg 78%
    14:00 0°C° 0 mm 3 mps 744 mmHg 77%
    15:00 +1°C° 0 mm 3 mps 744 mmHg 77%
    16:00 0°C° 0 mm 3 mps 744 mmHg 80%
    17:00 -1°C° 0 mm 3 mps 745 mmHg 82%
    18:00 -1°C° 0 mm 3 mps 745 mmHg 85%
    19:00 -2°C° 0 mm 3 mps 745 mmHg 86%
    20:00 -2°C° 0 mm 3 mps 745 mmHg 88%
    21:00 -2°C° 0 mm 3 mps 745 mmHg 90%
    22:00 -2°C° 0 mm 3 mps 745 mmHg 90%
    23:00 -2°C° 0 mm 3 mps 745 mmHg 89%
    Show more